Clarion, IA

12:47 PM CST on November 22, 2019 (GMT -0600)
Clarion Municipal

Weather History for KCAV - September, 2019

Change the Weather History Date:

Saturday, September 14, 2019

  Actual Average Record
Temperature  
Mean Temperature 63 °F -  
Max Temperature 75 °F 73 °F 91 °F (2017)
Min Temperature 51 °F 50 °F 30 °F (1996)
Degree Days  
Heating Degree Days 2    
Growing Degree Days 13 (Base 50)    
Moisture  
Dew Point 59 °F    
Average Humidity 86    
Maximum Humidity 100    
Minimum Humidity 57    
Precipitation  
Precipitation 0.04 in - - ()
Sea Level Pressure  
Sea Level Pressure 30.07 in    
Wind  
Wind Speed 9 mph (South)    
Max Wind Speed 24 mph    
Max Gust Speed 33 mph    
Visibility 10 miles    
Events      
Averages and records for this station are not official NWS values.
T = Trace of Precipitation, MM = Missing Value Source: NWS Daily Summary

Daily Weather History Graph

Daily Weather History Graph

Search for Another Location

Airport or City:

Astronomy

Sep. 14, 2019 Rise Set
Actual Time 6:53 AM CDT 7:26 PM CDT
Civil Twilight 6:25 AM CDT 7:55 PM CDT
Nautical Twilight 5:51 AM CDT 8:28 PM CDT
Astronomical Twilight 5:16 AM CDT 9:03 PM CDT
Moon 8:08 PM CDT (9/14) 7:06 AM CDT (9/14)
Length of Visible Light 13h 30m
Length of Day
12h 33m
Full, 100% of the Moon is Illuminated
Sep 14
Full
Sep 21
Last Quarter
Sep 28
New
Oct 5
First Quarter
Oct 13
Full

Hourly Weather History & Observations

Time (CDT) Temp. Dew Point Humidity Pressure Visibility Wind Dir Wind Speed Gust Speed Precip Events Conditions
12:15 AM 51.8 °F 51.8 °F 100% 30.14 in 10.0 mi SSE 4.6 mph - N/A   Clear
12:35 AM 51.8 °F 51.8 °F 100% 30.14 in 10.0 mi South 4.6 mph - N/A   Clear
12:55 AM 51.8 °F 51.8 °F 100% 30.15 in 10.0 mi South 3.5 mph - N/A   Clear
1:15 AM 51.8 °F 51.8 °F 100% 30.15 in 10.0 mi South 4.6 mph - N/A   Clear
1:35 AM 51.8 °F 51.8 °F 100% 30.15 in 10.0 mi South 5.8 mph - N/A   Partly Cloudy
1:55 AM 51.8 °F 51.8 °F 100% 30.15 in 10.0 mi SSE 5.8 mph - N/A   Mostly Cloudy
2:15 AM 53.6 °F 51.8 °F 94% 30.15 in 10.0 mi SE 4.6 mph - N/A   Mostly Cloudy
2:35 AM 53.6 °F 53.6 °F 100% 30.14 in 10.0 mi SSE 4.6 mph - N/A   Overcast
2:55 AM 53.6 °F 51.8 °F 94% 30.14 in 10.0 mi SSE 4.6 mph - N/A   Mostly Cloudy
3:15 AM 53.6 °F 51.8 °F 94% 30.14 in 10.0 mi SE 4.6 mph - N/A   Scattered Clouds
3:35 AM 51.8 °F 51.8 °F 100% 30.13 in 10.0 mi SSE 5.8 mph - N/A   Clear
3:55 AM 53.6 °F 51.8 °F 94% 30.13 in 10.0 mi SE 5.8 mph - N/A   Clear
4:15 AM 53.6 °F 51.8 °F 94% 30.14 in 10.0 mi SSE 5.8 mph - N/A   Clear
4:35 AM 53.6 °F 51.8 °F 94% 30.14 in 10.0 mi South 5.8 mph - N/A   Mostly Cloudy
4:55 AM 55.4 °F 53.6 °F 94% 30.14 in 10.0 mi South 4.6 mph - N/A   Overcast
5:15 AM 55.4 °F 53.6 °F 94% 30.13 in 10.0 mi SSE 3.5 mph - N/A   Overcast
5:55 AM 55.4 °F 53.6 °F 94% 30.12 in 10.0 mi SSE 6.9 mph - N/A   Scattered Clouds
6:15 AM 55.4 °F 53.6 °F 94% 30.12 in 10.0 mi SSE 5.8 mph - N/A   Clear
6:35 AM 55.4 °F 53.6 °F 94% 30.12 in 10.0 mi SSE 6.9 mph - N/A   Clear
6:55 AM 55.4 °F 53.6 °F 94% 30.12 in 10.0 mi SSE 6.9 mph - N/A   Partly Cloudy
7:15 AM 55.4 °F 55.4 °F 100% 30.12 in 10.0 mi SSE 5.8 mph - N/A   Mostly Cloudy
7:35 AM 57.2 °F 55.4 °F 94% 30.12 in 10.0 mi South 6.9 mph - N/A   Mostly Cloudy
7:55 AM 57.2 °F 57.2 °F 100% 30.12 in 10.0 mi South 6.9 mph - N/A   Mostly Cloudy
8:15 AM 59.0 °F 57.2 °F 94% 30.12 in 10.0 mi South 8.1 mph - N/A   Partly Cloudy
8:35 AM 59.0 °F 59.0 °F 100% 30.14 in 10.0 mi SSW 6.9 mph - N/A   Mostly Cloudy
8:55 AM 60.8 °F 59.0 °F 94% 30.14 in 10.0 mi South 6.9 mph - N/A   Partly Cloudy
9:15 AM 60.8 °F 59.0 °F 94% 30.15 in 10.0 mi South 6.9 mph - N/A   Clear
9:35 AM 60.8 °F 59.0 °F 94% 30.15 in 10.0 mi South 6.9 mph - N/A   Clear
9:55 AM 60.8 °F 59.0 °F 94% 30.15 in 10.0 mi South 8.1 mph - N/A   Scattered Clouds
10:15 AM 60.8 °F 60.8 °F 100% 30.14 in 7.0 mi South 16.1 mph - N/A   Mostly Cloudy
10:35 AM 60.8 °F 59.0 °F 94% 30.09 in 5.0 mi South 24.2 mph 32.2 mph N/A   Mostly Cloudy
10:55 AM 62.6 °F 59.0 °F 88% 30.04 in 10.0 mi South 23.0 mph 33.4 mph 0.04 in   Mostly Cloudy
11:15 AM 62.6 °F 59.0 °F 88% 30.06 in 10.0 mi South 19.6 mph 27.6 mph N/A   Clear
11:35 AM 62.6 °F 59.0 °F 88% 30.09 in 10.0 mi SSW 20.7 mph 26.5 mph N/A   Partly Cloudy
11:55 AM 64.4 °F 59.0 °F 83% 30.09 in 10.0 mi SSW 16.1 mph 25.3 mph N/A   Partly Cloudy
12:15 PM 66.2 °F 59.0 °F 78% 30.09 in 10.0 mi SSW 19.6 mph - N/A   Partly Cloudy
12:55 PM 71.6 °F 59.0 °F 64% 30.08 in 10.0 mi South 13.8 mph 20.7 mph N/A   Clear
1:15 PM 73.4 °F 59.0 °F 61% 30.05 in 10.0 mi SSW 19.6 mph 29.9 mph N/A   Clear
1:35 PM 71.6 °F 60.8 °F 69% 30.06 in 10.0 mi SSW 21.9 mph 28.8 mph N/A   Partly Cloudy
1:55 PM 73.4 °F 60.8 °F 65% 30.04 in 10.0 mi SSW 16.1 mph 28.8 mph N/A   Partly Cloudy
2:15 PM 73.4 °F 60.8 °F 65% 30.04 in 10.0 mi SSW 16.1 mph 24.2 mph N/A   Clear
2:35 PM 73.4 °F 59.0 °F 61% 30.03 in 10.0 mi SSW 24.2 mph 32.2 mph N/A   Clear
2:55 PM 75.2 °F 59.0 °F 57% 30.01 in 10.0 mi SSW 23.0 mph 29.9 mph N/A   Clear
3:15 PM 73.4 °F 59.0 °F 61% 30.01 in 10.0 mi SSW 17.3 mph 28.8 mph N/A   Clear
3:35 PM 73.4 °F 60.8 °F 65% 29.99 in 10.0 mi South 18.4 mph 28.8 mph N/A   Clear
3:55 PM 73.4 °F 60.8 °F 65% 29.98 in 10.0 mi South 21.9 mph 28.8 mph N/A   Clear
4:15 PM 73.4 °F 60.8 °F 65% 29.99 in 10.0 mi SSW 18.4 mph 28.8 mph N/A   Partly Cloudy
4:35 PM 73.4 °F 62.6 °F 69% 29.97 in 10.0 mi SSW 17.3 mph - N/A   Clear
4:55 PM 71.6 °F 62.6 °F 73% 29.98 in 10.0 mi SSW 15.0 mph 23.0 mph N/A   Partly Cloudy
5:15 PM 71.6 °F 62.6 °F 73% 29.98 in 10.0 mi South 12.7 mph 21.9 mph N/A   Partly Cloudy
5:55 PM 71.6 °F 64.4 °F 78% 29.98 in 10.0 mi SSW 11.5 mph - N/A   Clear
6:15 PM 71.6 °F 64.4 °F 78% 29.98 in 10.0 mi SSW 6.9 mph 12.7 mph N/A   Partly Cloudy
6:35 PM 71.6 °F 64.4 °F 78% 29.98 in 10.0 mi South 10.4 mph - N/A   Mostly Cloudy
6:55 PM 71.6 °F 62.6 °F 73% 29.99 in 10.0 mi South 9.2 mph - N/A   Overcast
7:15 PM 71.6 °F 62.6 °F 73% 29.98 in 10.0 mi SSE 9.2 mph 17.3 mph N/A   Overcast
7:35 PM 69.8 °F 64.4 °F 83% 29.99 in 10.0 mi SSE 10.4 mph 17.3 mph N/A   Overcast
7:55 PM 69.8 °F 64.4 °F 83% 29.98 in 10.0 mi SSE 10.4 mph - N/A   Overcast
8:15 PM 69.8 °F 64.4 °F 83% 29.98 in 10.0 mi SSE 9.2 mph - N/A   Overcast
8:35 PM 68.0 °F 64.4 °F 88% 29.99 in 10.0 mi SE 10.4 mph - N/A   Overcast
9:15 PM 69.8 °F 64.4 °F 83% 29.99 in 10.0 mi SE 9.2 mph - N/A   Overcast
9:35 PM 69.8 °F 66.2 °F 88% 29.99 in 10.0 mi SSE 6.9 mph - N/A   Mostly Cloudy
9:55 PM 69.8 °F 66.2 °F 88% 29.99 in 10.0 mi South 3.5 mph - N/A   Overcast
10:15 PM 69.8 °F 66.2 °F 88% 29.99 in 10.0 mi SSW 3.5 mph - N/A   Overcast
10:35 PM 69.8 °F 66.2 °F 88% 29.99 in 10.0 mi South 3.5 mph - N/A   Overcast
10:55 PM 69.8 °F 66.2 °F 88% 29.99 in 10.0 mi SSE 5.8 mph - N/A   Overcast
11:15 PM 69.8 °F 68.0 °F 94% 29.99 in 10.0 mi South 6.9 mph - N/A   Overcast
11:35 PM 69.8 °F 68.0 °F 94% 29.98 in 10.0 mi South 9.2 mph - N/A   Mostly Cloudy
11:55 PM 69.8 °F 68.0 °F 94% 29.98 in 10.0 mi South 8.1 mph - N/A   Mostly Cloudy